Location: Cheyres
(46.8153°N, 6.7877°E)
Time: 12:54:51
(UTC+00:00)

NANOSAT C BR1 - Pass Details

Date: 26 June 2022
Orbit: 584 x 599 km, 98.0° (Epoch: 07 August)

Event Time Altitude Azimuth Distance (km) Brightness Sun altitude
Rises 02:02:41 0° 10° (N) 2,843 ? -12.4°
Reaches altitude 10° 02:04:53 10° 7° (N) 1,939 ? -12.2°
Maximum altitude 02:09:02 62° 287° (WNW) 676 ? -11.7°
Enters shadow 02:12:14 16° 210° (SSW) 1,556 ? -11.4°
